Time,TemperatureF,DewpointF,PressureIn,WindDirection,WindDirectionDegrees,WindSpeedMPH,WindSpeedGustMPH,Humidity,HourlyPrecipIn,Conditions,Clouds,dailyrainin,SoftwareType,DateUTC
2013-07-23 00:11:00,67.0,62.0,-100.00,NE,35,6.0,7.0,84,0.00,,,-99.99,,2013-07-23 05:11:00,
2013-07-23 00:33:00,67.0,62.0,-100.00,NNE,30,4.0,7.0,85,0.00,,,-99.99,,2013-07-23 05:33:00,
2013-07-23 00:44:00,66.0,62.0,-100.00,NNE,25,2.0,6.0,87,0.00,,,-99.99,,2013-07-23 05:44:00,
2013-07-23 00:52:00,65.0,62.0,-100.00,NNE,25,2.0,6.0,88,0.00,,,-99.99,,2013-07-23 05:52:00,
2013-07-23 01:11:00,63.0,60.0,-100.00,NW,320,2.0,4.0,90,0.00,,,-99.99,,2013-07-23 06:11:00,
2013-07-23 01:33:00,62.0,60.0,-100.00,NNW,335,5.0,6.0,90,0.00,,,-99.99,,2013-07-23 06:33:00,
2013-07-23 02:33:00,60.0,58.0,-100.00,NW,320,4.0,6.0,92,0.00,,,-99.99,,2013-07-23 07:33:00,
2013-07-23 02:42:00,59.0,57.0,-100.00,NNW,330,4.0,6.0,92,0.00,,,-99.99,,2013-07-23 07:42:00,
2013-07-23 03:33:00,59.0,57.0,-100.00,North,0,3.0,4.0,92,0.00,,,-99.99,,2013-07-23 08:33:00,
2013-07-23 03:43:00,59.0,57.0,-100.00,NNW,345,3.0,6.0,92,0.00,,,-99.99,,2013-07-23 08:43:00,
2013-07-23 03:52:00,59.0,57.0,-100.00,NNW,345,3.0,4.0,92,0.00,,,-99.99,,2013-07-23 08:52:00,
2013-07-23 04:11:00,59.0,56.0,-100.00,North,0,5.0,6.0,92,0.00,,,-99.99,,2013-07-23 09:11:00,
2013-07-23 04:33:00,59.0,57.0,-100.00,North,355,6.0,8.0,92,0.00,,,-99.99,,2013-07-23 09:33:00,
2013-07-23 04:42:00,59.0,57.0,-100.00,North,0,6.0,7.0,92,0.00,,,-99.99,,2013-07-23 09:42:00,
2013-07-23 05:32:00,60.0,57.0,-100.00,North,0,4.0,6.0,92,0.00,,,-99.99,,2013-07-23 10:32:00,
2013-07-23 05:44:00,60.0,58.0,-100.00,East,95,2.0,6.0,92,0.00,,,-99.99,,2013-07-23 10:44:00,
2013-07-23 05:52:00,60.0,58.0,-100.00,WNW,290,4.0,6.0,92,0.00,,,-99.99,,2013-07-23 10:52:00,
2013-07-23 06:12:00,60.0,58.0,-100.00,NNE,25,6.0,7.0,92,0.00,,,-99.99,,2013-07-23 11:12:00,
2013-07-23 06:32:00,60.0,58.0,-100.00,ENE,60,6.0,10.0,92,0.00,,,-99.99,,2013-07-23 11:32:00,
2013-07-23 06:43:00,60.0,58.0,-100.00,North,10,4.0,6.0,92,0.00,,,-99.99,,2013-07-23 11:43:00,
2013-07-23 06:52:00,60.0,58.0,-100.00,NE,35,4.0,6.0,92,0.00,,,-99.99,,2013-07-23 11:52:00,
2013-07-23 07:11:00,60.0,58.0,-100.00,West,275,9.0,12.0,92,0.00,,,-99.99,,2013-07-23 12:11:00,
2013-07-23 07:22:00,60.0,58.0,-100.00,West,275,9.0,12.0,92,0.00,,,-99.99,,2013-07-23 12:22:00,
2013-07-23 07:33:00,60.0,58.0,-100.00,West,275,9.0,12.0,92,0.00,,,-99.99,,2013-07-23 12:33:00,
2013-07-23 07:43:00,61.0,59.0,-100.00,NNW,330,2.0,6.0,92,0.00,,,-99.99,,2013-07-23 12:43:00,
2013-07-23 08:11:00,62.0,60.0,-100.00,NW,315,3.0,4.0,92,0.00,,,-99.99,,2013-07-23 13:11:00,
2013-07-23 08:32:00,62.0,60.0,-100.00,NW,315,4.0,6.0,92,0.00,,,-99.99,,2013-07-23 13:32:00,
2013-07-23 08:43:00,63.0,60.0,-100.00,NNW,345,5.0,7.0,92,0.00,,,-99.99,,2013-07-23 13:43:00,
2013-07-23 09:12:00,65.0,58.0,-100.00,NNE,25,9.0,13.0,79,0.00,,,-99.99,,2013-07-23 14:12:00,
2013-07-23 09:22:00,65.0,58.0,-100.00,NNE,20,7.0,12.0,78,0.00,,,-99.99,,2013-07-23 14:22:00,
2013-07-23 09:32:00,65.0,58.0,-100.00,NNE,20,7.0,12.0,78,0.00,,,-99.99,,2013-07-23 14:32:00,
2013-07-23 09:44:00,66.0,58.0,-100.00,NNE,20,8.0,12.0,74,0.00,,,-99.99,,2013-07-23 14:44:00,
2013-07-23 09:53:00,67.0,58.0,-100.00,NNE,30,7.0,12.0,71,0.00,,,-99.99,,2013-07-23 14:53:00,
2013-07-23 10:11:00,69.0,57.0,-100.00,NE,35,7.0,9.0,66,0.00,,,-99.99,,2013-07-23 15:11:00,
2013-07-23 10:32:00,68.0,56.0,-100.00,ENE,65,6.0,9.0,66,0.00,,,-99.99,,2013-07-23 15:32:00,
2013-07-23 10:43:00,70.0,57.0,-100.00,NE,35,3.0,7.0,64,0.00,,,-99.99,,2013-07-23 15:43:00,
2013-07-23 11:12:00,71.0,56.0,-100.00,NE,45,8.0,11.0,58,0.00,,,-99.99,,2013-07-23 16:12:00,
2013-07-23 11:33:00,71.0,56.0,-100.00,NE,40,8.0,11.0,57,0.00,,,-99.99,,2013-07-23 16:33:00,
2013-07-23 11:43:00,73.0,55.0,-100.00,NE,35,10.0,14.0,53,0.00,,,-99.99,,2013-07-23 16:43:00,
2013-07-23 11:52:00,72.0,55.0,-100.00,NNE,25,7.0,12.0,53,0.00,,,-99.99,,2013-07-23 16:52:00,
2013-07-23 12:11:00,73.0,55.0,-100.00,NNE,20,9.0,12.0,53,0.00,,,-99.99,,2013-07-23 17:11:00,
2013-07-23 12:32:00,73.0,55.0,-100.00,NE,45,9.0,14.0,53,0.00,,,-99.99,,2013-07-23 17:32:00,
2013-07-23 12:42:00,72.0,54.0,-100.00,NE,55,9.0,13.0,53,0.00,,,-99.99,,2013-07-23 17:42:00,
2013-07-23 13:33:00,74.0,54.0,-100.00,NE,40,10.0,14.0,49,0.00,,,-99.99,,2013-07-23 18:33:00,
2013-07-23 13:46:00,75.0,55.0,-100.00,NE,40,7.0,16.0,50,0.00,,,-99.99,,2013-07-23 18:46:00,
2013-07-23 14:14:00,75.0,55.0,-100.00,NE,40,10.0,15.0,49,0.00,,,-99.99,,2013-07-23 19:14:00,
2013-07-23 14:24:00,75.0,55.0,-100.00,NE,40,9.0,14.0,49,0.00,,,-99.99,,2013-07-23 19:24:00,
2013-07-23 14:33:00,75.0,55.0,-100.00,NE,35,10.0,14.0,48,0.00,,,-99.99,,2013-07-23 19:33:00,
2013-07-23 14:46:00,76.0,55.0,-100.00,NNE,30,9.0,21.0,48,0.00,,,-99.99,,2013-07-23 19:46:00,
2013-07-23 14:52:00,76.0,56.0,-100.00,East,85,8.0,17.0,49,0.00,,,-99.99,,2013-07-23 19:52:00,
2013-07-23 15:03:00,76.0,56.0,-100.00,NE,35,12.0,17.0,50,0.00,,,-99.99,,2013-07-23 20:03:00,
2013-07-23 15:12:00,77.0,57.0,-100.00,North,0,12.0,17.0,49,0.00,,,-99.99,,2013-07-23 20:12:00,
2013-07-23 15:22:00,77.0,56.0,-100.00,NE,35,10.0,17.0,49,0.00,,,-99.99,,2013-07-23 20:22:00,
2013-07-23 15:34:00,76.0,56.0,-100.00,NNE,15,11.0,18.0,49,0.00,,,-99.99,,2013-07-23 20:34:00,
2013-07-23 15:44:00,76.0,56.0,-100.00,North,10,9.0,16.0,48,0.00,,,-99.99,,2013-07-23 20:44:00,
2013-07-23 15:54:00,77.0,56.0,-100.00,NE,50,9.0,14.0,48,0.00,,,-99.99,,2013-07-23 20:54:00,
2013-07-23 16:04:00,76.0,55.0,-100.00,NE,45,9.0,12.0,48,0.00,,,-99.99,,2013-07-23 21:04:00,
2013-07-23 16:13:00,76.0,55.0,-100.00,ENE,75,9.0,13.0,48,0.00,,,-99.99,,2013-07-23 21:13:00,
2013-07-23 16:22:00,76.0,55.0,-100.00,NE,55,6.0,13.0,47,0.00,,,-99.99,,2013-07-23 21:22:00,
2013-07-23 16:34:00,76.0,54.0,-100.00,NE,35,9.0,12.0,45,0.00,,,-99.99,,2013-07-23 21:34:00,
2013-07-23 16:45:00,76.0,53.0,-100.00,NE,50,6.0,11.0,44,0.00,,,-99.99,,2013-07-23 21:45:00,
2013-07-23 16:54:00,76.0,53.0,-100.00,NE,50,6.0,11.0,44,0.00,,,-99.99,,2013-07-23 21:54:00,
2013-07-23 17:04:00,77.0,54.0,-100.00,North,10,7.0,12.0,45,0.00,,,-99.99,,2013-07-23 22:04:00,
2013-07-23 17:12:00,78.0,55.0,-100.00,North,0,1.0,9.0,45,0.00,,,-99.99,,2013-07-23 22:12:00,
2013-07-23 17:23:00,77.0,55.0,-100.00,NNE,25,3.0,11.0,46,0.00,,,-99.99,,2013-07-23 22:23:00,
2013-07-23 17:34:00,77.0,55.0,-100.00,North,355,4.0,9.0,46,0.00,,,-99.99,,2013-07-23 22:34:00,
2013-07-23 17:43:00,77.0,55.0,-100.00,North,5,4.0,8.0,46,0.00,,,-99.99,,2013-07-23 22:43:00,
2013-07-23 18:04:00,77.0,55.0,-100.00,NNE,15,7.0,11.0,45,0.00,,,-99.99,,2013-07-23 23:04:00,
2013-07-23 18:12:00,77.0,55.0,-100.00,NE,50,4.0,10.0,46,0.00,,,-99.99,,2013-07-23 23:12:00,
2013-07-23 18:24:00,77.0,55.0,-100.00,North,5,6.0,9.0,46,0.00,,,-99.99,,2013-07-23 23:24:00,
2013-07-23 18:43:00,76.0,54.0,-100.00,NNE,30,6.0,9.0,46,0.00,,,-99.99,,2013-07-23 23:43:00,
2013-07-23 18:55:00,76.0,54.0,-100.00,NE,50,4.0,8.0,46,0.00,,,-99.99,,2013-07-23 23:55:00,
2013-07-23 19:06:00,76.0,55.0,-100.00,North,0,6.0,9.0,46,0.00,,,-99.99,,2013-07-24 00:06:00,
2013-07-23 19:24:00,75.0,55.0,-100.00,North,0,6.0,8.0,49,0.00,,,-99.99,,2013-07-24 00:24:00,
2013-07-23 19:34:00,75.0,55.0,-100.00,NE,35,7.0,9.0,49,0.00,,,-99.99,,2013-07-24 00:34:00,
2013-07-23 19:46:00,74.0,54.0,-100.00,NNE,15,5.0,11.0,49,0.31,,,-99.99,,2013-07-24 00:46:00,
2013-07-23 19:53:00,74.0,54.0,-100.00,NE,40,7.0,9.0,50,0.00,,,-99.99,,2013-07-24 00:53:00,
2013-07-23 20:03:00,73.0,54.0,-100.00,NE,40,6.0,13.0,51,0.00,,,-99.99,,2013-07-24 01:03:00,
2013-07-23 20:12:00,72.0,55.0,-100.00,NE,35,7.0,12.0,53,0.00,,,-99.99,,2013-07-24 01:12:00,
2013-07-23 20:24:00,72.0,55.0,-100.00,NNE,30,6.0,9.0,55,0.00,,,-99.99,,2013-07-24 01:24:00,
2013-07-23 20:33:00,71.0,54.0,-100.00,NNE,25,7.0,10.0,55,0.00,,,-99.99,,2013-07-24 01:33:00,
2013-07-23 20:43:00,70.0,54.0,-100.00,NNE,25,6.0,10.0,55,0.00,,,-99.99,,2013-07-24 01:43:00,
2013-07-23 20:55:00,70.0,54.0,-100.00,NNE,25,6.0,10.0,55,0.00,,,-99.99,,2013-07-24 01:55:00,
2013-07-23 21:03:00,68.0,53.0,-100.00,NNE,30,4.0,7.0,56,0.00,,,-99.99,,2013-07-24 02:03:00,
2013-07-23 21:15:00,67.0,53.0,-100.00,North,10,2.0,6.0,59,0.00,,,-99.99,,2013-07-24 02:15:00,
2013-07-23 21:36:00,66.0,53.0,-100.00,NNE,15,4.0,6.0,64,0.00,,,-99.99,,2013-07-24 02:36:00,
2013-07-23 21:45:00,65.0,53.0,-100.00,NE,35,4.0,6.0,66,0.00,,,-99.99,,2013-07-24 02:45:00,
2013-07-23 21:54:00,65.0,54.0,-100.00,NNE,30,4.0,6.0,67,0.00,,,-99.99,,2013-07-24 02:54:00,
2013-07-23 22:12:00,63.0,54.0,-100.00,NNE,30,2.0,4.0,72,0.00,,,-99.99,,2013-07-24 03:12:00,
2013-07-23 22:35:00,62.0,54.0,-100.00,North,5,1.0,2.0,75,0.00,,,-99.99,,2013-07-24 03:35:00,
2013-07-23 22:44:00,60.0,54.0,-100.00,NW,305,1.0,2.0,82,0.00,,,-99.99,,2013-07-24 03:44:00,
2013-07-23 23:11:00,58.0,55.0,-100.00,NNW,335,2.0,2.0,87,0.00,,,-99.99,,2013-07-24 04:11:00,
2013-07-23 23:32:00,58.0,55.0,-100.00,North,10,2.0,2.0,88,0.00,,,-99.99,,2013-07-24 04:32:00,
2013-07-23 23:43:00,58.0,54.0,-100.00,NNE,15,2.0,3.0,88,0.00,,,-99.99,,2013-07-24 04:43:00,